QPF
0.04 0.05 0.05 0.05 0.06 0.08 0.08 0.07 0.07 0.05 0.03 0.02 0.02 0.03 0.04 0.03 0.02 0.03 0.05 0.05 0.06 0.08 0.07 0.05 0.04 0.04 0.03 0.02 0.02 0.01 0.01 0.01 0.03 0.04 0.03 0.03 0.03 0.03
0.03 0.02 0.03 0.03 0.04 0.05 0.05 0.05 0.05 0.06 0.04 0.02 0.02 0.01 0.02 0.03 0.03 0.05 0.06 0.05 0.05 0.06 0.07 0.07 0.06 0.04 0.03 0.02 0.02 0.02 0.02 0.01 0.01 0.04 0.06 0.05 0.03 0.03
0.04 0.03 0.03 0.03 0.03 0.04 0.04 0.04 0.04 0.03 0.03 0.03 0.02 0.01 0.02 0.03 0.04 0.06 0.07 0.05 0.04 0.05 0.07 0.08 0.08 0.07 0.05 0.03 0.02 0.02 0.01 0.01 0.01 0.01 0.03 0.07 0.08 0.05
0.04 0.06 0.04 0.02 0.03 0.04 0.04 0.03 0.03 0.03 0.03 0.03 0.02 0.02 0.03 0.03 0.03 0.05 0.07 0.06 0.06 0.05 0.05 0.07 0.09 0.09 0.08 0.07 0.05 0.04 0.02 0.02 0.01 0.01 0.02 0.03 0.07 0.10
0.03 0.06 0.07 0.06 0.04 0.04 0.05 0.05 0.06 0.06 0.06 0.04 0.04 0.03 0.03 0.03 0.03 0.03 0.04 0.05 0.05 0.05 0.04 0.04 0.05 0.08 0.09 0.07 0.06 0.05 0.03 0.03 0.02 0.02 0.02 0.03 0.03 0.05
0.05 0.04 0.04 0.06 0.07 0.09 0.08 0.08 0.08 0.08 0.07 0.07 0.05 0.04 0.03 0.03 0.03 0.03 0.02 0.03 0.04 0.05 0.04 0.04 0.04 0.04 0.05 0.05 0.05 0.05 0.04 0.03 0.03 0.02 0.02 0.03 0.03 0.03
0.06 0.05 0.04 0.05 0.06 0.08 0.08 0.08 0.08 0.07 0.07 0.06 0.04 0.04 0.04 0.04 0.04 0.03 0.02 0.02 0.03 0.04 0.03 0.02 0.02 0.02 0.02 0.03 0.03 0.03 0.03 0.03 0.03 0.02 0.02 0.02 0.03 0.03
0.06 0.06 0.06 0.07 0.06 0.06 0.05 0.05 0.05 0.05 0.06 0.06 0.05 0.04 0.04 0.03 0.03 0.03 0.02 0.02 0.02 0.02 0.03 0.02 0.02 0.03 0.02 0.02 0.02 0.02 0.02 0.02 0.02 0.02 0.02 0.02 0.02 0.02
0.05 0.05 0.05 0.06 0.06 0.05 0.05 0.04 0.04 0.03 0.04 0.05 0.04 0.04 0.04 0.04 0.04 0.03 0.02 0.01 0.01 0.01 0.02 0.02 0.02 0.02 0.02 0.03 0.03 0.02 0.02 0.01 0.01 0.01 0.02 0.02 0.03 0.03
0.04 0.04 0.04 0.03 0.03 0.03 0.02 0.01 0.01 0.01 0.02 0.03 0.03 0.03 0.02 0.02 0.03 0.03 0.02 0.01 0.00 0.01 0.01 0.01 0.01 0.01 0.01 0.02 0.02 0.02 0.01 0.01 0.01 0.02 0.02 0.02 0.02 0.03
0.02 0.02 0.02 0.02 0.01 0.02 0.01 0.01 0.01 0.01 0.02 0.02 0.02 0.02 0.02 0.01 0.02 0.02 0.01 0.01 0.01 0.01 0.01 0.01 0.01 0.02 0.02 0.01 0.01 0.02 0.02 0.02 0.02 0.02 0.02 0.03 0.02 0.02
0.01 0.02 0.02 0.02 0.01 0.01 0.02 0.01 0.02 0.01 0.02 0.02 0.02 0.02 0.01 0.01 0.01 0.02 0.01 0.01 0.01 0.01 0.01 0.01 0.01 0.02 0.02 0.01 0.01 0.02 0.02 0.02 0.02 0.02 0.02 0.03 0.04 0.03
0.00 0.01 0.02 0.03 0.02 0.01 0.02 0.02 0.02 0.02 0.01 0.01 0.01 0.01 0.02 0.01 0.02 0.01 0.01 0.02 0.02 0.02 0.02 0.03 0.03 0.02 0.03 0.02 0.02 0.02 0.02 0.02 0.02 0.03 0.03 0.02 0.03 0.03
0.01 0.01 0.02 0.03 0.02 0.01 0.01 0.01 0.01 0.02 0.01 0.01 0.01 0.01 0.01 0.01 0.01 0.01 0.02 0.02 0.02 0.02 0.02 0.03 0.03 0.03 0.04 0.03 0.03 0.03 0.03 0.03 0.03 0.03 0.03 0.03 0.03 0.04
0.00 0.00 0.01 0.01 0.02 0.01 0.01 0.01 0.01 0.01 0.01 0.01 0.01 0.01 0.01 0.01 0.01 0.01 0.01 0.02 0.02 0.01 0.01 0.02 0.02 0.03 0.04 0.04 0.03 0.04 0.04 0.03 0.03 0.03 0.03 0.03 0.02 0.02
0.00 0.01 0.01 0.01 0.01 0.02 0.01 0.01 0.01 0.01 0.01 0.01 0.01 0.01 0.01 0.02 0.02 0.02 0.02 0.02 0.02 0.01 0.01 0.02 0.03 0.04 0.03 0.03 0.03 0.03 0.03 0.03 0.03 0.03 0.04 0.03 0.02 0.02
0.01 0.01 0.01 0.01 0.01 0.01 0.01 0.01 0.01 0.01 0.01 0.01 0.01 0.01 0.01 0.02 0.02 0.02 0.03 0.02 0.02 0.01 0.02 0.02 0.03 0.03 0.03 0.04 0.03 0.02 0.02 0.02 0.02 0.03 0.05 0.04 0.02 0.02
0.01 0.01 0.01 0.01 0.01 0.01 0.01 0.01 0.01 0.01 0.01 0.02 0.02 0.02 0.02 0.03 0.03 0.03 0.03 0.03 0.02 0.02 0.02 0.02 0.02 0.03 0.03 0.03 0.02 0.02 0.01 0.02 0.03 0.05 0.05 0.03 0.02 0.02
0.01 0.01 0.01 0.01 0.01 0.01 0.01 0.02 0.01 0.01 0.01 0.01 0.01 0.02 0.03 0.03 0.03 0.03 0.03 0.03 0.03 0.03 0.02 0.02 0.03 0.03 0.03 0.03 0.03 0.02 0.02 0.02 0.04 0.05 0.04 0.03 0.02 0.03
0.01 0.01 0.01 0.01 0.01 0.02 0.01 0.01 0.01 0.01 0.01 0.01 0.01 0.02 0.03 0.04 0.04 0.03 0.03 0.03 0.03 0.03 0.03 0.04 0.03 0.03 0.03 0.03 0.03 0.03 0.03 0.03 0.04 0.06 0.06 0.05 0.05 0.06
0.02 0.02 0.02 0.01 0.01 0.01 0.01 0.01 0.01 0.02 0.02 0.02 0.02 0.01 0.02 0.02 0.02 0.01 0.01 0.01 0.01 0.01 0.02 0.02 0.02 0.02 0.02 0.02 0.03 0.04 0.04 0.05 0.06 0.07 0.07 0.06 0.06 0.06
0.03 0.03 0.03 0.03 0.02 0.02 0.01 0.02 0.02 0.02 0.02 0.02 0.02 0.02 0.02 0.02 0.01 0.01 0.01 0.01 0.01 0.01 0.01 0.01 0.01 0.01 0.01 0.02 0.02 0.03 0.03 0.03 0.05 0.06 0.05 0.05 0.05 0.05
0.02 0.03 0.03 0.02 0.03 0.03 0.02 0.02 0.02 0.02 0.02 0.02 0.01 0.01 0.01 0.01 0.01 0.01 0.01 0.00 0.01 0.01 0.01 0.01 0.01 0.02 0.02 0.02 0.02 0.03 0.03 0.03 0.05 0.05 0.03 0.03 0.03 0.03
MSLP
1018.37 1018.50 1018.65 1018.77 1018.82 1018.76 1018.60 1018.31 1017.94 1017.48 1016.98 1016.45 1015.89 1015.33 1014.75 1014.17 1013.58 1013.01 1012.46 1011.96 1011.54 1011.20 1010.96 1010.80 1010.73 1010.71 1010.73 1010.76 1010.80 1010.83 1010.85 1010.88 1010.91 1010.95 1011.00 1011.05 1011.09 1011.11
1018.05 1018.14 1018.24 1018.31 1018.33 1018.26 1018.10 1017.86 1017.56 1017.20 1016.80 1016.36 1015.91 1015.41 1014.89 1014.32 1013.73 1013.13 1012.54 1011.99 1011.50 1011.11 1010.81 1010.60 1010.48 1010.42 1010.40 1010.41 1010.43 1010.45 1010.48 1010.51 1010.56 1010.62 1010.68 1010.74 1010.78 1010.80
1017.76 1017.81 1017.85 1017.87 1017.83 1017.73 1017.58 1017.37 1017.13 1016.86 1016.56 1016.25 1015.89 1015.50 1015.04 1014.53 1013.96 1013.36 1012.75 1012.17 1011.64 1011.19 1010.83 1010.56 1010.38 1010.27 1010.20 1010.17 1010.15 1010.15 1010.16 1010.18 1010.22 1010.28 1010.35 1010.40 1010.44 1010.45
1017.51 1017.51 1017.49 1017.44 1017.35 1017.21 1017.04 1016.86 1016.66 1016.47 1016.28 1016.07 1015.83 1015.53 1015.17 1014.73 1014.21 1013.64 1013.04 1012.44 1011.89 1011.40 1011.00 1010.68 1010.44 1010.27 1010.14 1010.05 1009.98 1009.93 1009.90 1009.90 1009.91 1009.95 1009.99 1010.04 1010.06 1010.04
1017.28 1017.23 1017.15 1017.03 1016.87 1016.69 1016.50 1016.32 1016.16 1016.03 1015.92 1015.81 1015.67 1015.48 1015.21 1014.85 1014.41 1013.90 1013.33 1012.76 1012.21 1011.71 1011.28 1010.92 1010.63 1010.39 1010.21 1010.05 1009.92 1009.81 1009.72 1009.66 1009.63 1009.62 1009.63 1009.64 1009.64 1009.60
1017.04 1016.94 1016.79 1016.60 1016.38 1016.16 1015.94 1015.75 1015.62 1015.53 1015.48 1015.44 1015.40 1015.30 1015.13 1014.86 1014.50 1014.06 1013.57 1013.04 1012.52 1012.04 1011.60 1011.22 1010.89 1010.60 1010.36 1010.13 1009.93 1009.75 1009.60 1009.47 1009.38 1009.31 1009.27 1009.24 1009.19 1009.13
1016.74 1016.58 1016.38 1016.14 1015.87 1015.61 1015.37 1015.18 1015.05 1014.99 1014.98 1015.00 1015.02 1014.99 1014.90 1014.72 1014.45 1014.10 1013.68 1013.22 1012.75 1012.30 1011.88 1011.50 1011.15 1010.83 1010.53 1010.25 1009.98 1009.73 1009.50 1009.31 1009.14 1009.02 1008.92 1008.83 1008.75 1008.65
1016.35 1016.15 1015.92 1015.64 1015.35 1015.07 1014.82 1014.62 1014.50 1014.45 1014.46 1014.51 1014.56 1014.59 1014.55 1014.44 1014.24 1013.97 1013.63 1013.24 1012.84 1012.44 1012.05 1011.68 1011.33 1010.99 1010.66 1010.33 1010.01 1009.70 1009.41 1009.15 1008.92 1008.73 1008.57 1008.44 1008.31 1008.18
1015.87 1015.66 1015.41 1015.13 1014.84 1014.56 1014.32 1014.13 1014.01 1013.96 1013.97 1014.02 1014.08 1014.12 1014.11 1014.04 1013.89 1013.68 1013.41 1013.09 1012.75 1012.41 1012.06 1011.71 1011.37 1011.03 1010.68 1010.33 1009.97 1009.61 1009.27 1008.96 1008.69 1008.45 1008.24 1008.07 1007.90 1007.74
1015.33 1015.12 1014.89 1014.64 1014.38 1014.12 1013.90 1013.73 1013.61 1013.55 1013.54 1013.56 1013.60 1013.62 1013.61 1013.54 1013.42 1013.25 1013.02 1012.76 1012.48 1012.18 1011.88 1011.57 1011.25 1010.91 1010.56 1010.20 1009.82 1009.44 1009.07 1008.73 1008.42 1008.15 1007.92 1007.71 1007.53 1007.34
1014.77 1014.59 1014.39 1014.18 1013.97 1013.76 1013.57 1013.41 1013.29 1013.21 1013.16 1013.14 1013.13 1013.11 1013.06 1012.98 1012.85 1012.69 1012.50 1012.27 1012.04 1011.79 1011.52 1011.25 1010.96 1010.64 1010.30 1009.94 1009.56 1009.17 1008.79 1008.44 1008.11 1007.83 1007.58 1007.37 1007.17 1006.98
1014.21 1014.07 1013.91 1013.76 1013.60 1013.43 1013.27 1013.13 1013.00 1012.89 1012.80 1012.72 1012.64 1012.56 1012.46 1012.34 1012.19 1012.03 1011.85 1011.65 1011.45 1011.24 1011.02 1010.79 1010.53 1010.24 1009.92 1009.57 1009.20 1008.82 1008.45 1008.09 1007.77 1007.48 1007.24 1007.02 1006.83 1006.64
1013.65 1013.54 1013.43 1013.32 1013.21 1013.08 1012.94 1012.80 1012.65 1012.50 1012.36 1012.21 1012.07 1011.91 1011.76 1011.59 1011.43 1011.25 1011.09 1010.92 1010.75 1010.58 1010.41 1010.21 1009.99 1009.74 1009.45 1009.13 1008.78 1008.41 1008.05 1007.70 1007.39 1007.11 1006.87 1006.67 1006.49 1006.31
1013.06 1012.97 1012.90 1012.82 1012.72 1012.61 1012.48 1012.32 1012.14 1011.95 1011.75 1011.54 1011.33 1011.12 1010.91 1010.72 1010.53 1010.36 1010.21 1010.07 1009.95 1009.83 1009.71 1009.56 1009.39 1009.18 1008.93 1008.64 1008.31 1007.97 1007.62 1007.29 1006.98 1006.71 1006.49 1006.30 1006.13 1005.97
1012.40 1012.33 1012.26 1012.19 1012.09 1011.97 1011.81 1011.63 1011.41 1011.17 1010.91 1010.65 1010.39 1010.13 1009.89 1009.68 1009.49 1009.34 1009.21 1009.12 1009.05 1008.98 1008.92 1008.83 1008.72 1008.56 1008.36 1008.10 1007.81 1007.49 1007.16 1006.84 1006.54 1006.28 1006.06 1005.88 1005.73 1005.59
1011.67 1011.59 1011.51 1011.42 1011.30 1011.14 1010.95 1010.71 1010.45 1010.16 1009.86 1009.55 1009.25 1008.97 1008.71 1008.49 1008.32 1008.19 1008.10 1008.05 1008.03 1008.03 1008.03 1008.01 1007.96 1007.86 1007.72 1007.51 1007.26 1006.97 1006.66 1006.35 1006.06 1005.80 1005.58 1005.40 1005.26 1005.13
1010.89 1010.79 1010.68 1010.55 1010.39 1010.18 1009.94 1009.65 1009.34 1009.00 1008.66 1008.31 1007.99 1007.69 1007.43 1007.21 1007.05 1006.94 1006.88 1006.87 1006.90 1006.96 1007.01 1007.06 1007.07 1007.04 1006.96 1006.81 1006.61 1006.36 1006.08 1005.79 1005.51 1005.24 1005.02 1004.84 1004.69 1004.57
1010.13 1010.02 1009.88 1009.70 1009.48 1009.22 1008.92 1008.58 1008.22 1007.84 1007.46 1007.08 1006.73 1006.42 1006.14 1005.92 1005.75 1005.64 1005.60 1005.60 1005.65 1005.74 1005.84 1005.93 1006.01 1006.04 1006.03 1005.95 1005.81 1005.61 1005.38 1005.11 1004.84 1004.59 1004.35 1004.16 1004.01 1003.89
1009.51 1009.37 1009.19 1008.97 1008.70 1008.39 1008.04 1007.65 1007.25 1006.84 1006.42 1006.02 1005.64 1005.29 1004.99 1004.73 1004.52 1004.38 1004.30 1004.28 1004.31 1004.39 1004.50 1004.63 1004.75 1004.84 1004.89 1004.89 1004.82 1004.69 1004.52 1004.30 1004.06 1003.81 1003.59 1003.38 1003.22 1003.09
1009.08 1008.93 1008.72 1008.47 1008.16 1007.81 1007.42 1007.00 1006.57 1006.12 1005.68 1005.24 1004.82 1004.42 1004.06 1003.73 1003.44 1003.21 1003.05 1002.95 1002.92 1002.95 1003.03 1003.15 1003.29 1003.43 1003.54 1003.62 1003.64 1003.60 1003.49 1003.34 1003.15 1002.94 1002.72 1002.52 1002.35 1002.21
1008.87 1008.71 1008.49 1008.21 1007.88 1007.51 1007.10 1006.66 1006.21 1005.75 1005.28 1004.80 1004.33 1003.86 1003.41 1002.97 1002.57 1002.21 1001.91 1001.68 1001.54 1001.47 1001.49 1001.57 1001.70 1001.86 1002.03 1002.18 1002.29 1002.35 1002.34 1002.27 1002.15 1001.99 1001.80 1001.61 1001.43 1001.28
1008.82 1008.65 1008.42 1008.13 1007.80 1007.42 1007.01 1006.57 1006.12 1005.65 1005.17 1004.66 1004.13 1003.59 1003.03 1002.46 1001.91 1001.40 1000.93 1000.54 1000.24 1000.04 999.95 999.97 1000.07 1000.24 1000.44 1000.66 1000.86 1001.02 1001.12 1001.15 1001.12 1001.03 1000.89 1000.72 1000.55 1000.39
1008.80 1008.62 1008.38 1008.09 1007.75 1007.39 1007.00 1006.59 1006.15 1005.70 1005.21 1004.68 1004.11 1003.50 1002.84 1002.15 1001.45 1000.77 1000.13 999.56 999.09 998.74 998.53 998.46 998.50 998.65 998.88 999.16 999.44 999.70 999.90 1000.04 1000.11 1000.10 1000.02 999.90 999.75 999.59
Thickness
5643 5642 5640 5639 5637 5635 5633 5630 5626 5623 5625 5629 5631 5635 5636 5636 5637 5636 5635 5635 5634 5634 5633 5633 5633 5633 5634 5634 5635 5635 5636 5637 5638 5639 5639 5640 5641 5643
5639 5637 5635 5634 5632 5630 5628 5625 5623 5620 5619 5622 5625 5627 5629 5630 5630 5629 5630 5630 5629 5629 5628 5628 5628 5628 5629 5630 5630 5631 5631 5632 5633 5634 5635 5636 5636 5637
5634 5633 5631 5630 5627 5625 5622 5619 5618 5615 5613 5616 5618 5620 5621 5621 5622 5623 5623 5623 5623 5623 5623 5623 5623 5623 5624 5624 5625 5626 5627 5627 5628 5629 5630 5631 5632 5633
5630 5628 5626 5625 5622 5619 5616 5614 5612 5611 5608 5609 5611 5612 5613 5614 5614 5615 5616 5617 5617 5617 5617 5617 5617 5618 5618 5618 5620 5621 5622 5623 5623 5624 5625 5626 5627 5627
5627 5625 5622 5620 5617 5614 5612 5609 5607 5607 5604 5602 5603 5604 5604 5606 5606 5607 5608 5608 5610 5611 5611 5611 5611 5612 5613 5613 5614 5615 5617 5618 5618 5619 5619 5620 5621 5622
5623 5621 5619 5617 5614 5611 5608 5605 5602 5600 5598 5596 5595 5596 5596 5597 5596 5596 5597 5599 5600 5603 5603 5604 5605 5606 5607 5608 5609 5610 5611 5612 5613 5614 5614 5615 5616 5616
5619 5617 5615 5614 5612 5608 5605 5601 5597 5594 5592 5590 5588 5587 5587 5587 5587 5588 5587 5589 5591 5594 5594 5596 5597 5598 5600 5601 5603 5604 5605 5606 5607 5608 5609 5609 5610 5610
5614 5612 5611 5609 5607 5604 5601 5598 5595 5590 5587 5585 5582 5581 5581 5581 5581 5581 5579 5578 5580 5586 5585 5588 5590 5591 5594 5595 5598 5599 5599 5600 5601 5602 5602 5603 5604 5604
5609 5607 5606 5605 5602 5598 5596 5593 5589 5587 5585 5581 5578 5577 5576 5577 5575 5574 5573 5572 5574 5578 5577 5580 5583 5584 5588 5590 5591 5593 5593 5594 5595 5596 5596 5597 5597 5597
5605 5602 5600 5598 5596 5592 5589 5586 5583 5582 5580 5577 5575 5574 5574 5573 5571 5570 5569 5569 5570 5572 5572 5572 5576 5578 5582 5583 5584 5586 5587 5588 5588 5589 5589 5589 5590 5590
5600 5598 5596 5593 5591 5588 5584 5580 5577 5576 5576 5574 5572 5571 5571 5569 5567 5565 5563 5561 5562 5565 5567 5566 5569 5571 5573 5576 5578 5579 5580 5581 5582 5582 5583 5583 5583 5583
5595 5593 5591 5589 5586 5583 5578 5574 5571 5570 5569 5568 5566 5566 5565 5564 5563 5561 5560 5557 5556 5558 5562 5561 5562 5562 5564 5568 5570 5571 5572 5573 5575 5576 5576 5576 5576 5574
5590 5588 5586 5584 5582 5578 5575 5570 5568 5566 5563 5561 5559 5559 5559 5559 5559 5558 5557 5555 5553 5554 5558 5557 5556 5556 5556 5558 5561 5563 5564 5566 5567 5569 5569 5569 5569 5568
5586 5584 5582 5580 5577 5573 5569 5567 5564 5561 5557 5555 5553 5553 5553 5554 5554 5554 5554 5553 5553 5553 5555 5553 5552 5551 5550 5551 5553 5555 5557 5559 5560 5561 5562 5562 5562 5561
5583 5581 5579 5576 5572 5568 5565 5562 5559 5555 5552 5549 5548 5548 5549 5550 5550 5549 5550 5549 5549 5550 5550 5550 5548 5547 5546 5546 5548 5548 5549 5552 5553 5554 5555 5555 5554 5554
5579 5576 5574 5570 5567 5563 5560 5557 5554 5550 5548 5545 5544 5544 5544 5544 5543 5543 5542 5542 5542 5543 5545 5545 5545 5543 5542 5542 5542 5542 5544 5544 5546 5547 5547 5547 5547 5547
5574 5570 5566 5563 5559 5556 5553 5551 5548 5546 5543 5541 5540 5539 5539 5538 5538 5538 5536 5535 5535 5536 5537 5539 5540 5539 5538 5537 5537 5538 5538 5539 5540 5540 5539 5539 5539 5540
5568 5564 5560 5557 5554 5551 5548 5546 5544 5542 5540 5539 5536 5535 5534 5533 5533 5533 5532 5530 5530 5531 5531 5532 5533 5532 5531 5532 5533 5532 5531 5532 5533 5533 5533 5532 5532 5533
5563 5560 5556 5553 5550 5547 5544 5542 5540 5539 5537 5535 5534 5532 5531 5530 5529 5528 5527 5527 5526 5526 5526 5526 5526 5525 5524 5524 5526 5527 5526 5526 5526 5526 5526 5526 5527 5528
5559 5556 5553 5550 5547 5544 5542 5539 5537 5536 5534 5532 5530 5528 5527 5525 5525 5524 5523 5523 5522 5522 5521 5522 5521 5521 5520 5520 5520 5521 5521 5520 5519 5519 5520 5520 5520 5522
5557 5554 5551 5548 5545 5543 5540 5537 5535 5533 5531 5529 5527 5525 5524 5522 5521 5521 5520 5519 5518 5517 5517 5517 5518 5518 5517 5514 5513 5514 5515 5516 5516 5514 5514 5514 5514 5514
5555 5553 5550 5547 5544 5541 5538 5535 5532 5530 5528 5525 5523 5521 5520 5519 5518 5518 5517 5516 5514 5514 5514 5514 5514 5513 5512 5510 5510 5509 5509 5510 5510 5510 5510 5511 5510 5510
5552 5550 5547 5545 5542 5539 5535 5532 5529 5527 5524 5522 5520 5518 5517 5516 5515 5515 5514 5513 5512 5511 5511 5510 5509 5508 5507 5506 5505 5504 5504 5504 5503 5503 5503 5504 5506 5506